This is the latest recevied weather packets stored in our database for station/object K5GTX. If no packets are shown the sender has not sent any weather packets the latest 10 day(s).
| Time | Temp. | Humidity | Pressure | Rain* | Wind** | Luminosity | Snow |
|---|---|---|---|---|---|---|---|
| 1777395841 | 26.11° C | 99% | 1018.4 hPa | 0 mm | - | 204 W/m² | - |
| 1777395536 | 26.67° C | 99% | 1018.5 hPa | 0 mm | - | 198 W/m² | - |
| 1777395233 | 26.11° C | 99% | 1018.5 hPa | 0 mm | - | 228 W/m² | - |
| 1777394930 | 26.67° C | 99% | 1018.7 hPa | 0 mm | - | 219 W/m² | - |
| 1777394626 | 26.11° C | 99% | 1018.8 hPa | 0 mm | - | 181 W/m² | - |
| 1777394323 | 26.11° C | 99% | 1018.7 hPa | 0 mm | - | 154 W/m² | - |
| 1777394019 | 26.11° C | 99% | 1018.6 hPa | 0 mm | - | 153 W/m² | - |
| 1777393719 | 25.56° C | 99% | 1018.9 hPa | 0 mm | - | 186 W/m² | - |
| 1777393414 | 25.56° C | 99% | 1019.1 hPa | 0 mm | - | 79 W/m² | - |
| 1777393111 | 25.56° C | 99% | 1019 hPa | 0 mm | - | 65 W/m² | - |
| 1777392807 | 25.56° C | 99% | 1018.8 hPa | 0 mm | - | 168 W/m² | - |
| 1777392503 | 25.56° C | 99% | 1019.1 hPa | 0 mm | - | 126 W/m² | - |
| 1777392199 | 25.56° C | 99% | 1019 hPa | 0 mm | - | 84 W/m² | - |
| 1777391894 | 25° C | 99% | 1018.9 hPa | 0 mm | - | 103 W/m² | - |
| 1777391589 | 25° C | 99% | 1019.1 hPa | 0 mm | - | 60 W/m² | - |
| 1777391286 | 25° C | 99% | 1018.9 hPa | 0 mm | - | 98 W/m² | - |
| 1777390983 | 25° C | 99% | 1018.8 hPa | 0 mm | - | 55 W/m² | - |
| 1777390678 | 25° C | 99% | 1018.8 hPa | 0 mm | - | 44 W/m² | - |
| 1777390375 | 25° C | 99% | 1018.7 hPa | 0 mm | - | 43 W/m² | - |
| 1777390070 | 25° C | 99% | 1018.9 hPa | 0 mm | - | 31 W/m² | - |
| 1777389768 | 25° C | 99% | 1018.8 hPa | 0 mm | - | 43 W/m² | - |
| 1777389465 | 25° C | 99% | 1018.6 hPa | 0 mm | - | 49 W/m² | - |
| 1777389162 | 25° C | 99% | 1018.4 hPa | 0 mm | - | 31 W/m² | - |
| 1777388860 | 25° C | 99% | 1018.5 hPa | 0 mm | - | 56 W/m² | - |
| 1777388557 | 25° C | 99% | 1018.5 hPa | 0 mm | - | 53 W/m² | - |
* Rain latest hour (hover to see other rain measurements)
** Current wind speed in m/s (hover to see current wind gust speed)